K4DNM Weather Reports


Display with metric or nautical units.
time (UTC)temp
F
wind
direction
speed
MPH
gust
MPH
rain 1hr
in
rain 24hr
in
rain mn
in
humidity
%
barometer
mb
20260904174600 95 141 2.0 6.0 0.00 0.00 0.00 65 1013.9
20260904174146 95 275 2.0 6.0 0.00 0.00 0.00 65 1013.9
20260904174059 95 173 2.0 6.0 0.00 0.00 0.00 63 1014.0
20260904173642 94 230 1.0 5.0 0.00 0.00 0.00 65 1014.0
20260904173556 94 316 1.0 9.0 0.00 0.00 0.00 64 1014.1
20260904173143 94 251 2.0 9.0 0.00 0.00 0.00 64 1014.1
20260904173056 94 145 2.0 9.0 0.00 0.00 0.00 65 1014.1
20260904172641 93 205 3.0 9.0 0.00 0.00 0.00 66 1014.1
20260904172549 93 164 3.0 9.0 0.00 0.00 0.00 67 1014.1
20260904172140 93 185 4.0 10.0 0.00 0.00 0.00 65 1014.2
20260904172044 93 173 4.0 10.0 0.00 0.00 0.00 66 1014.2
20260904171802 94 178 3.0 10.0 0.00 0.00 0.00 65 1014.2
20260904171656 94 189 3.0 10.0 0.00 0.00 0.00 65 1014.2
20260904171134 95 180 2.0 10.0 0.00 0.00 0.00 64 1014.2
20260904171039 95 0 2.0 4.0 0.00 0.00 0.00 64 1014.2
20260904170636 94 151 2.0 8.0 0.00 0.00 0.00 65 1014.3
20260904170536 94 229 2.0 8.0 0.00 0.00 0.00 64 1014.2
20260904170131 94 308 2.0 8.0 0.00 0.00 0.00 65 1014.3
20260904170030 94 334 2.0 8.0 0.00 0.00 0.00 63 1014.3
20260904165749 94 238 2.0 5.0 0.00 0.00 0.00 63 1014.4
20260904165639 94 165 2.0 5.0 0.00 0.00 0.00 64 1014.4
20260904165128 94 7 2.0 5.0 0.00 0.00 0.00 62 1014.4
20260904165025 94 213 2.0 5.0 0.00 0.00 0.00 64 1014.5
20260904164628 94 242 2.0 7.0 0.00 0.00 0.00 64 1014.5
20260904164527 94 233 2.0 7.0 0.00 0.00 0.00 65 1014.5
20260904164242 94 78 2.0 7.0 0.00 0.00 0.00 63 1014.6
20260904164138 94 0 2.0 7.0 0.00 0.00 0.00 63 1014.6
20260904163626 94 290 1.0 3.0 0.00 0.00 0.00 63 1014.7
20260904163523 94 305 1.0 3.0 0.00 0.00 0.00 63 1014.7
20260904163125 94 79 1.0 6.0 0.00 0.00 0.00 65 1014.7
20260904163019 94 153 2.0 6.0 0.00 0.00 0.00 64 1014.7
20260904162622 93 46 2.0 6.0 0.00 0.00 0.00 65 1014.8
20260904162521 93 346 1.0 6.0 0.00 0.00 0.00 64 1014.8
20260904162122 93 203 1.0 6.0 0.00 0.00 0.00 64 1014.8
20260904162016 93 194 1.0 5.0 0.00 0.00 0.00 65 1014.9
20260904161620 92 336 2.0 5.0 0.00 0.00 0.00 67 1014.9
20260904161515 93 0 2.0 5.0 0.00 0.00 0.00 66 1014.9
20260904161118 93 171 2.0 5.0 0.00 0.00 0.00 65 1014.9
20260904161015 93 170 2.0 5.0 0.00 0.00 0.00 65 1014.9
20260904160617 93 66 2.0 5.0 0.00 0.00 0.00 66 1014.9
20260904160511 93 281 2.0 5.0 0.00 0.00 0.00 65 1014.9
20260904160115 92 321 2.0 7.0 0.00 0.00 0.00 67 1014.9
20260904160013 92 156 2.0 7.0 0.00 0.00 0.00 68 1014.9
20260904155615 92 218 2.0 7.0 0.00 0.00 0.00 68 1014.9
20260904155509 92 230 2.0 7.0 0.00 0.00 0.00 68 1014.9
20260904155112 92 160 2.0 7.0 0.00 0.00 0.00 66 1015.0
20260904155009 92 207 2.0 6.0 0.00 0.00 0.00 66 1015.0
20260904154721 92 238 2.0 6.0 0.00 0.00 0.00 66 1015.0
20260904154620 92 41 2.0 6.0 0.00 0.00 0.00 67 1015.0
20260904154447 92 321 1.0 5.0 0.00 0.00 0.00 67 1015.0
20260904154115 92 219 1.0 5.0 0.00 0.00 0.00 66 1015.0
20260904153611 92 325 1.0 5.0 0.00 0.00 0.00 66 1015.0
20260904153458 92 341 1.0 5.0 0.00 0.00 0.00 69 1015.0
20260904153110 91 0 2.0 5.0 0.00 0.00 0.00 68 1015.0
20260904152957 91 349 2.0 5.0 0.00 0.00 0.00 68 1015.0
20260904152714 91 234 2.0 5.0 0.00 0.00 0.00 69 1015.1
20260904152611 91 165 2.0 5.0 0.00 0.00 0.00 67 1015.1
20260904152108 91 253 2.0 5.0 0.00 0.00 0.00 69 1015.1
20260904151954 92 239 1.0 5.0 0.00 0.00 0.00 68 1015.1
20260904151607 91 173 1.0 4.0 0.00 0.00 0.00 68 1015.1
20260904151455 91 120 1.0 4.0 0.00 0.00 0.00 67 1015.2
20260904151107 91 286 1.0 3.0 0.00 0.00 0.00 67 1015.2
20260904150952 91 172 1.0 3.0 0.00 0.00 0.00 69 1015.2
20260904150603 90 182 1.0 4.0 0.00 0.00 0.00 69 1015.2
20260904150450 90 203 2.0 4.0 0.00 0.00 0.00 69 1015.1
20260904145948 90 121 1.0 4.0 0.00 0.00 0.00 70 1015.1
20260904145601 90 119 2.0 5.0 0.00 0.00 0.00 70 1015.0
20260904145447 90 266 2.0 5.0 0.00 0.00 0.00 70 1015.0
20260904145100 89 329 2.0 6.0 0.00 0.00 0.00 70 1015.0
20260904144947 89 83 2.0 6.0 0.00 0.00 0.00 71 1015.0
20260904144558 89 22 2.0 6.0 0.00 0.00 0.00 72 1015.0
20260904144446 89 178 2.0 6.0 0.00 0.00 0.00 72 1015.0
20260904144057 89 148 2.0 5.0 0.00 0.00 0.00 72 1015.0
20260904143942 89 153 1.0 5.0 0.00 0.00 0.00 73 1015.1
20260904143555 89 82 1.0 5.0 0.00 0.00 0.00 72 1015.1
20260904143441 89 152 1.0 5.0 0.00 0.00 0.00 72 1015.1
20260904143051 88 0 2.0 7.0 0.00 0.00 0.00 73 1015.1
20260904142943 88 137 2.0 7.0 0.00 0.00 0.00 73 1015.1
20260904142551 89 200 2.0 7.0 0.00 0.00 0.00 73 1015.1
20260904142444 89 304 2.0 7.0 0.00 0.00 0.00 72 1015.1
20260904142047 89 336 2.0 5.0 0.00 0.00 0.00 72 1015.1
20260904141939 89 184 2.0 5.0 0.00 0.00 0.00 71 1015.1
20260904141544 89 185 1.0 4.0 0.00 0.00 0.00 71 1015.2
20260904141442 89 124 1.0 4.0 0.00 0.00 0.00 73 1015.2
20260904141201 88 144 1.0 4.0 0.00 0.00 0.00 73 1015.3
20260904141053 88 357 1.0 4.0 0.00 0.00 0.00 72 1015.3
20260904140540 88 275 1.0 4.0 0.00 0.00 0.00 74 1015.3
20260904140437 88 39 1.0 4.0 0.00 0.00 0.00 74 1015.3
20260904140158 87 248 2.0 5.0 0.00 0.00 0.00 76 1015.2
20260904140048 87 255 1.0 5.0 0.00 0.00 0.00 76 1015.3
20260904135538 87 78 2.0 5.0 0.00 0.00 0.00 75 1015.2
20260904135433 87 272 2.0 5.0 0.00 0.00 0.00 76 1015.2
20260904135036 87 336 2.0 4.0 0.00 0.00 0.00 76 1015.2
20260904134932 87 229 2.0 4.0 0.00 0.00 0.00 76 1015.2
20260904134534 87 155 1.0 4.0 0.00 0.00 0.00 76 1015.2
20260904134430 87 280 1.0 4.0 0.00 0.00 0.00 76 1015.2
20260904134033 87 307 1.0 4.0 0.00 0.00 0.00 76 1015.2
20260904133928 87 166 1.0 4.0 0.00 0.00 0.00 76 1015.2
20260904133531 87 298 1.0 4.0 0.00 0.00 0.00 76 1015.2
20260904133426 87 0 1.0 4.0 0.00 0.00 0.00 76 1015.2
20260904133030 86 84 1.0 4.0 0.00 0.00 0.00 77 1015.2
20260904132926 86 274 1.0 4.0 0.00 0.00 0.00 77 1015.2
20260904132652 86 234 1.0 4.0 0.00 0.00 0.00 79 1015.2
20260904132538 86 0 1.0 4.0 0.00 0.00 0.00 78 1015.2
20260904132027 85 308 1.0 4.0 0.00 0.00 0.00 79 1015.3
20260904131922 85 255 1.0 4.0 0.00 0.00 0.00 79 1015.3
20260904131523 85 78 1.0 4.0 0.00 0.00 0.00 78 1015.3
20260904131420 85 42 1.0 4.0 0.00 0.00 0.00 79 1015.3
20260904131023 85 240 1.0 3.0 0.00 0.00 0.00 78 1015.3
20260904130920 85 269 1.0 3.0 0.00 0.00 0.00 78 1015.3
20260904130522 85 330 1.0 3.0 0.00 0.00 0.00 79 1015.3
20260904130421 84 147 1.0 3.0 0.00 0.00 0.00 79 1015.3
20260904130141 84 324 1.0 4.0 0.00 0.00 0.00 81 1015.3
20260904130036 84 354 1.0 4.0 0.00 0.00 0.00 80 1015.3
20260904125521 83 334 2.0 4.0 0.00 0.00 0.00 82 1015.3
20260904125420 83 92 2.0 4.0 0.00 0.00 0.00 83 1015.3
20260904125021 83 5 2.0 4.0 0.00 0.00 0.00 82 1015.3
20260904124920 83 262 2.0 4.0 0.00 0.00 0.00 82 1015.3
20260904124521 83 155 1.0 4.0 0.00 0.00 0.00 81 1015.3
20260904124423 83 116 1.0 4.0 0.00 0.00 0.00 82 1015.3
20260904124404 83 0 1.0 4.0 0.00 0.00 0.00 81 1015.3
20260904124034 83 227 0.0 3.0 0.00 0.00 0.00 81 1015.3
20260904123517 82 0 1.0 5.0 0.00 0.00 0.00 83 1015.3
20260904123416 82 209 1.0 5.0 0.00 0.00 0.00 83 1015.3
20260904123017 82 0 1.0 5.0 0.00 0.00 0.00 84 1015.2
20260904122917 82 348 1.0 5.0 0.00 0.00 0.00 85 1015.3
20260904122514 82 209 1.0 4.0 0.00 0.00 0.00 84 1015.3
20260904122416 82 0 1.0 4.0 0.00 0.00 0.00 84 1015.3
20260904122109 80 210 0.0 2.0 0.00 0.00 0.00 86 1015.2
20260904122017 81 0 1.0 4.0 0.00 0.00 0.00 84 1015.3
20260904122003 81 172 1.0 4.0 0.00 0.00 0.00 84 1015.3
20260904121524 81 0 0.0 2.0 0.00 0.00 0.00 85 1015.2
20260904121010 80 0 0.0 3.0 0.00 0.00 0.00 88 1015.2
20260904120908 80 351 0.0 3.0 0.00 0.00 0.00 88 1015.2
20260904120508 79 0 0.0 3.0 0.00 0.00 0.00 90 1015.2
20260904120408 79 0 0.0 3.0 0.00 0.00 0.00 91 1015.2
20260904120003 78 282 0.0 3.0 0.00 0.00 0.00 92 1015.2
20260904115905 78 0 0.0 3.0 0.00 0.00 0.00 92 1015.2
20260904115504 78 0 0.0 1.0 0.00 0.00 0.00 94 1015.2
20260904115404 78 0 0.0 1.0 0.00 0.00 0.00 94 1015.2
20260904115126 77 280 0.0 2.0 0.00 0.00 0.00 95 1015.2
20260904115014 77 231 0.0 2.0 0.00 0.00 0.00 95 1015.2
20260904114459 76 0 0.0 2.0 0.00 0.00 0.00 95 1015.2
20260904114404 76 229 0.0 2.0 0.00 0.00 0.00 96 1015.2
20260904113950 76 197 0.0 1.0 0.00 0.00 0.00 96 1015.2
20260904113902 76 0 0.0 1.0 0.00 0.00 0.00 96 1015.2
20260904113435 75 0 0.0 1.0 0.00 0.00 0.00 96 1015.2
20260904113354 75 0 0.0 1.0 0.00 0.00 0.00 96 1015.1
20260904112922 75 184 0.0 1.0 0.00 0.00 0.00 96 1015.1
20260904112837 75 0 0.0 1.0 0.00 0.00 0.00 96 1015.1
20260904112404 74 191 0.0 1.0 0.00 0.00 0.00 96 1015.2
20260904112323 74 0 0.0 1.0 0.00 0.00 0.00 96 1015.2
20260904111850 74 182 0.0 1.0 0.00 0.00 0.00 96 1015.1
20260904111811 74 268 0.0 1.0 0.00 0.00 0.00 96 1015.1
20260904111337 74 0 0.0 1.0 0.00 0.00 0.00 96 1015.1
20260904111251 74 0 0.0 1.0 0.00 0.00 0.00 96 1015.1
20260904110831 74 0 0.0 1.0 0.00 0.00 0.00 96 1015.1
20260904110750 74 148 0.0 1.0 0.00 0.00 0.00 96 1015.1
20260904110318 74 104 0.0 1.0 0.00 0.00 0.00 96 1015.1
20260904110220 74 0 0.0 1.0 0.00 0.00 0.00 96 1015.1
20260904105819 74 0 0.0 1.0 0.00 0.00 0.00 96 1015.1
20260904105707 74 0 0.0 1.0 0.00 0.00 0.00 96 1015.1
20260904105305 74 0 0.0 1.0 0.00 0.00 0.00 96 1015.1
20260904105203 74 0 0.0 1.0 0.00 0.00 0.00 96 1015.1
20260904104805 74 0 0.0 1.0 0.00 0.00 0.00 96 1015.1
20260904104703 74 0 0.0 1.0 0.00 0.00 0.00 96 1015.1
20260904104300 74 0 0.0 1.0 0.00 0.00 0.00 96 1015.0
20260904104204 74 0 0.0 1.0 0.00 0.00 0.00 96 1015.0
20260904103753 74 0 0.0 0.0 0.00 0.00 0.00 95 1015.0
20260904103706 74 0 0.0 0.0 0.00 0.00 0.00 95 1015.0
20260904103247 74 0 0.0 1.0 0.00 0.00 0.00 96 1015.0
20260904103152 74 0 0.0 1.0 0.00 0.00 0.00 95 1015.0
20260904102749 74 43 0.0 1.0 0.00 0.00 0.00 95 1015.0
20260904102638 74 290 0.0 1.0 0.00 0.00 0.00 95 1014.9
20260904102248 74 0 0.0 1.0 0.00 0.00 0.00 95 1014.9
20260904102126 74 0 0.0 1.0 0.00 0.00 0.00 95 1014.9
20260904101749 74 0 0.0 1.0 0.00 0.00 0.00 95 1014.9
20260904101609 74 0 0.0 1.0 0.00 0.00 0.00 95 1014.9
20260904101332 74 0 0.0 0.0 0.00 0.00 0.00 95 1014.9
20260904101235 74 0 0.0 0.0 0.00 0.00 0.00 95 1014.9
20260904100724 74 0 0.0 0.0 0.00 0.00 0.00 95 1014.9
20260904100553 74 0 0.0 1.0 0.00 0.00 0.00 95 1014.9
20260904100205 74 0 0.0 1.0 0.00 0.00 0.00 95 1014.9
20260904095702 74 0 0.0 1.0 0.00 0.00 0.00 95 1014.9
20260904095539 74 190 0.0 1.0 0.00 0.00 0.00 95 1014.9
20260904095152 74 0 0.0 0.0 0.00 0.00 0.00 95 1014.9
20260904095035 74 0 0.0 0.0 0.00 0.00 0.00 95 1014.9
20260904094638 74 0 0.0 0.0 0.00 0.00 0.00 95 1014.9
20260904094522 74 0 0.0 0.0 0.00 0.00 0.00 95 1014.9
20260904094139 74 0 0.0 0.0 0.00 0.00 0.00 95 1014.9
20260904094007 74 0 0.0 0.0 0.00 0.00 0.00 95 1014.9
20260904093633 74 0 0.0 0.0 0.00 0.00 0.00 95 1014.9
20260904093505 74 0 0.0 0.0 0.00 0.00 0.00 95 1014.9
20260904093121 74 0 0.0 1.0 0.00 0.00 0.00 95 1014.9
20260904092954 74 0 0.0 1.0 0.00 0.00 0.00 95 1014.9
20260904092618 74 0 0.0 1.0 0.00 0.00 0.00 95 1014.9
20260904092451 74 0 0.0 1.0 0.00 0.00 0.00 95 1014.8
20260904092118 74 191 0.0 1.0 0.00 0.00 0.00 95 1014.8
20260904091940 74 0 0.0 0.0 0.00 0.00 0.00 95 1014.8
20260904091618 74 0 0.0 0.0 0.00 0.00 0.00 95 1014.8
20260904091437 74 0 0.0 0.0 0.00 0.00 0.00 95 1014.8
20260904091104 74 0 0.0 0.0 0.00 0.00 0.00 95 1014.7
20260904090922 74 0 0.0 0.0 0.00 0.00 0.00 95 1014.7
20260904090602 74 0 0.0 1.0 0.00 0.00 0.00 95 1014.8
20260904090411 74 181 0.0 1.0 0.00 0.00 0.00 95 1014.8
20260904090052 74 0 0.0 1.0 0.00 0.00 0.00 95 1014.7
20260904085908 74 0 0.0 1.0 0.00 0.00 0.00 95 1014.7
20260904085538 74 0 0.0 0.0 0.00 0.00 0.00 95 1014.7
20260904085407 74 0 0.0 0.0 0.00 0.00 0.00 95 1014.7
20260904085024 74 0 0.0 0.0 0.00 0.00 0.00 94 1014.6
20260904084854 74 0 0.0 0.0 0.00 0.00 0.00 94 1014.6
20260904084508 74 0 0.0 0.0 0.00 0.00 0.00 94 1014.6
20260904084341 74 0 0.0 0.0 0.00 0.00 0.00 94 1014.6
20260904083951 75 0 0.0 0.0 0.00 0.00 0.00 94 1014.5
20260904083824 75 0 0.0 0.0 0.00 0.00 0.00 94 1014.5
20260904083438 75 0 0.0 0.0 0.00 0.00 0.00 94 1014.6
20260904083321 75 0 0.0 0.0 0.00 0.00 0.00 94 1014.6
20260904082921 75 0 0.0 0.0 0.00 0.00 0.00 94 1014.5
20260904082822 75 67 0.0 0.0 0.00 0.00 0.00 94 1014.5
20260904082526 75 0 0.0 1.0 0.00 0.00 0.00 94 1014.5
20260904082422 75 0 0.0 1.0 0.00 0.00 0.00 94 1014.5
20260904081908 75 0 0.0 1.0 0.00 0.00 0.00 94 1014.5
20260904081807 75 0 0.0 1.0 0.00 0.00 0.00 94 1014.5
20260904081404 75 0 0.0 0.0 0.00 0.00 0.00 94 1014.5
20260904081307 75 0 0.0 0.0 0.00 0.00 0.00 94 1014.5
20260904080855 75 0 0.0 2.0 0.00 0.00 0.00 94 1014.4
20260904080808 75 0 0.0 2.0 0.00 0.00 0.00 94 1014.4
20260904080742 75 0 1.0 2.0 0.00 0.00 0.00 94 1014.3
20260904080407 75 0 0.0 2.0 0.00 0.00 0.00 94 1014.4
20260904075822 75 0 1.0 2.0 0.00 0.00 0.00 94 1014.3
20260904075741 75 0 1.0 2.0 0.00 0.00 0.00 94 1014.3
20260904075308 75 140 0.0 2.0 0.00 0.00 0.00 94 1014.3
20260904075227 75 140 0.0 2.0 0.00 0.00 0.00 94 1014.3
20260904074804 75 199 0.0 2.0 0.00 0.00 0.00 94 1014.4
20260904074710 75 0 0.0 2.0 0.00 0.00 0.00 94 1014.4
20260904074253 75 0 0.0 0.0 0.00 0.00 0.00 94 1014.4
20260904074207 75 0 0.0 0.0 0.00 0.00 0.00 94 1014.4
20260904073742 75 0 0.0 0.0 0.00 0.00 0.00 94 1014.5
20260904073656 75 0 0.0 0.0 0.00 0.00 0.00 94 1014.4
20260904073224 75 0 0.0 0.0 0.00 0.00 0.00 94 1014.5
20260904073142 75 0 0.0 0.0 0.00 0.00 0.00 93 1014.5
20260904072851 75 0 0.0 0.0 0.00 0.00 0.00 93 1014.6
20260904072737 75 0 0.0 0.0 0.00 0.00 0.00 93 1014.5
20260904072206 75 0 0.0 0.0 0.00 0.00 0.00 93 1014.6
20260904072123 75 0 0.0 0.0 0.00 0.00 0.00 93 1014.6
20260904071705 75 0 0.0 0.0 0.00 0.00 0.00 93 1014.6
20260904071626 75 0 0.0 0.0 0.00 0.00 0.00 93 1014.6
20260904071153 75 0 0.0 0.0 0.00 0.00 0.00 93 1014.6
20260904071107 75 0 0.0 0.0 0.00 0.00 0.00 93 1014.6
20260904070838 75 0 0.0 0.0 0.00 0.00 0.00 93 1014.7
20260904070720 75 0 0.0 0.0 0.00 0.00 0.00 93 1014.7
20260904070115 75 0 0.0 1.0 0.00 0.00 0.00 93 1014.6
20260904065639 75 0 0.0 1.0 0.00 0.00 0.00 93 1014.7
20260904065609 75 0 0.0 1.0 0.00 0.00 0.00 93 1014.7
20260904065125 75 166 0.0 1.0 0.00 0.00 0.00 93 1014.7
20260904065112 75 0 0.0 0.0 0.00 0.00 0.00 93 1014.7
20260904064608 75 0 0.0 0.0 0.00 0.00 0.00 93 1014.7
20260904064107 75 0 0.0 1.0 0.00 0.00 0.00 92 1014.8
20260904064100 75 0 0.0 1.0 0.00 0.00 0.00 92 1014.8
20260904064033 75 0 0.0 1.0 0.00 0.00 0.00 92 1014.8
20260904063649 75 0 0.0 1.0 0.00 0.00 0.00 92 1014.8
20260904063106 76 0 0.0 0.0 0.00 0.00 0.00 92 1014.9
20260904063028 76 0 0.0 0.0 0.00 0.00 0.00 92 1014.9
20260904062752 76 0 0.0 0.0 0.00 0.00 0.00 92 1015.0
20260904062632 76 0 0.0 0.0 0.00 0.00 0.00 92 1015.0
20260904062025 76 0 0.0 0.0 0.00 0.00 0.00 92 1015.0
20260904061527 76 0 0.0 0.0 0.00 0.00 0.00 92 1015.1
20260904061012 76 0 0.0 0.0 0.00 0.00 0.00 92 1015.2
20260904060509 76 0 0.0 0.0 0.00 0.00 0.00 91 1015.3
20260904060013 76 0 0.0 1.0 0.00 0.00 0.00 91 1015.3
20260904055512 76 0 0.0 1.0 0.00 0.00 0.00 91 1015.5
20260904055009 76 0 0.0 1.0 0.00 0.00 0.00 91 1015.5
20260904054501 76 0 0.0 1.0 0.00 0.00 0.00 91 1015.5
20260904053942 76 0 0.0 1.0 0.00 0.00 0.00 90 1015.6
20260904053427 77 0 0.0 0.0 0.00 0.00 0.00 90 1015.6
20260904053409 77 0 0.0 0.0 0.00 0.00 0.00 89 1015.7
20260904053036 77 0 0.0 0.0 0.00 0.00 0.00 89 1015.7
20260904052411 77 0 0.0 0.0 0.00 0.00 0.00 89 1015.6
20260904051909 77 0 0.0 0.0 0.00 0.00 0.00 88 1015.6
20260904051617 77 0 0.0 0.0 0.00 0.00 0.00 88 1015.7
20260904051502 77 0 0.0 0.0 0.00 0.00 0.00 88 1015.7
20260904050844 78 0 0.0 1.0 0.00 0.00 0.00 88 1015.7
20260904050340 78 0 0.0 1.0 0.00 0.00 0.00 87 1015.7
20260904045830 78 0 0.0 1.0 0.00 0.00 0.00 87 1015.7
20260904045329 78 0 0.0 2.0 0.00 0.00 0.00 87 1015.7
20260904044827 78 0 0.0 2.0 0.00 0.00 0.00 86 1015.7
20260904044547 79 241 0.0 2.0 0.00 0.00 0.00 86 1015.7
20260904044431 79 241 0.0 2.0 0.00 0.00 0.00 86 1015.7
20260904044047 79 240 0.0 2.0 0.00 0.00 0.00 85 1015.7
20260904043930 79 240 0.0 2.0 0.00 0.00 0.00 85 1015.7
20260904043323 79 0 0.0 4.0 0.00 0.00 0.00 85 1015.6
20260904042820 79 0 1.0 4.0 0.00 0.00 0.00 84 1015.6
20260904042320 79 0 1.0 4.0 0.00 0.00 0.00 84 1015.6
20260904041819 80 15 1.0 4.0 0.00 0.00 0.00 83 1015.5
20260904041315 80 167 2.0 4.0 0.00 0.00 0.00 83 1015.5
20260904040815 80 0 2.0 4.0 0.00 0.00 0.00 83 1015.5
20260904040315 80 143 2.0 5.0 0.00 0.00 0.00 82 1015.4
20260904040034 80 219 2.0 5.0 0.00 0.00 0.00 82 1015.5
20260904035916 80 219 2.0 5.0 0.00 0.00 0.00 82 1015.5
20260904035311 80 183 2.0 5.0 0.00 0.00 0.00 82 1015.5
20260904035029 80 178 1.0 4.0 0.00 0.00 0.00 82 1015.5
20260904034916 80 178 1.0 4.0 0.00 0.00 0.00 82 1015.5
20260904034312 80 157 1.0 3.0 0.00 0.00 0.00 83 1015.7
20260904033812 80 145 1.0 4.0 0.00 0.00 0.00 83 1015.7
20260904033308 80 200 2.0 4.0 0.00 0.00 0.00 83 1015.8
20260904032806 80 191 2.0 3.0 0.00 0.00 0.00 84 1015.7
20260904032306 81 289 0.0 2.0 0.00 0.00 0.00 83 1015.7
20260904031811 81 0 0.0 2.0 0.00 0.00 0.00 84 1015.8
20260904031257 81 0 0.0 2.0 0.00 0.00 0.00 83 1015.8
20260904031016 81 0 1.0 4.0 0.00 0.00 0.00 82 1015.7
20260904030858 81 0 1.0 4.0 0.00 0.00 0.00 82 1015.7
20260904030253 81 0 1.0 5.0 0.00 0.00 0.00 82 1015.7
20260904025748 82 203 1.0 5.0 0.00 0.00 0.00 82 1015.8
20260904025516 82 163 1.0 5.0 0.00 0.00 0.00 82 1015.9
20260904025352 82 163 1.0 5.0 0.00 0.00 0.00 82 1015.9
20260904024745 82 143 1.0 3.0 0.00 0.00 0.00 82 1015.8
20260904024247 82 203 1.0 4.0 0.00 0.00 0.00 82 1015.8
20260904023743 82 202 1.0 4.0 0.00 0.00 0.00 82 1015.9
20260904023243 82 0 1.0 3.0 0.00 0.00 0.00 81 1015.9
20260904022957 82 204 1.0 3.0 0.00 0.00 0.00 81 1015.9
20260904022844 82 204 1.0 3.0 0.00 0.00 0.00 81 1015.9
20260904022238 83 159 1.0 4.0 0.00 0.00 0.00 81 1015.9
20260904021749 83 0 2.0 4.0 0.00 0.00 0.00 80 1015.9
20260904021236 83 190 2.0 4.0 0.00 0.00 0.00 80 1015.8
20260904020955 83 213 2.0 4.0 0.00 0.00 0.00 80 1015.8
20260904020838 83 213 2.0 4.0 0.00 0.00 0.00 80 1015.8
20260904020233 83 171 1.0 5.0 0.00 0.00 0.00 80 1015.7
20260904015731 83 138 1.0 5.0 0.00 0.00 0.00 80 1015.8
20260904015724 83 172 2.0 5.0 0.00 0.00 0.00 79 1015.7
20260904015334 83 172 2.0 5.0 0.00 0.00 0.00 79 1015.7
20260904014730 83 144 2.0 5.0 0.00 0.00 0.00 79 1015.6
20260904014232 83 137 2.0 5.0 0.00 0.00 0.00 79 1015.5
20260904013730 83 171 2.0 4.0 0.00 0.00 0.00 79 1015.6
20260904013227 83 204 1.0 4.0 0.00 0.00 0.00 80 1015.5
20260904012727 82 0 0.0 2.0 0.00 0.00 0.00 80 1015.3
20260904012224 82 0 0.0 2.0 0.00 0.00 0.00 80 1015.2
20260904011722 82 218 0.0 1.0 0.00 0.00 0.00 80 1015.1
20260904011224 83 0 0.0 4.0 0.00 0.00 0.00 80 1015.1
20260904010940 83 0 1.0 4.0 0.00 0.00 0.00 79 1015.0
20260904010825 83 0 1.0 4.0 0.00 0.00 0.00 79 1015.0
20260904010217 83 193 0.0 2.0 0.00 0.00 0.00 80 1014.9
20260904005717 83 0 0.0 1.0 0.00 0.00 0.00 79 1014.8
20260904005442 83 0 0.0 0.0 0.00 0.00 0.00 78 1014.7
20260904005320 83 0 0.0 0.0 0.00 0.00 0.00 78 1014.7
20260904004711 83 0 0.0 1.0 0.00 0.00 0.00 78 1014.7
20260904004424 83 0 0.0 2.0 0.00 0.00 0.00 79 1014.6
20260904004306 83 0 0.0 2.0 0.00 0.00 0.00 79 1014.6
20260904003656 83 0 0.0 2.0 0.00 0.00 0.00 78 1014.4
20260904003208 84 0 0.0 2.0 0.00 0.00 0.00 79 1014.4
20260904002653 84 202 0.0 1.0 0.00 0.00 0.00 77 1014.4
20260904002151 84 0 0.0 2.0 0.00 0.00 0.00 76 1014.4
20260904001651 84 0 1.0 2.0 0.00 0.00 0.00 76 1014.3
20260904001149 85 0 1.0 2.0 0.00 0.00 0.00 76 1014.2
20260904000912 85 178 0.0 2.0 0.00 0.00 0.00 76 1014.1
20260904000752 85 178 0.0 2.0 0.00 0.00 0.00 76 1014.1
20260904000410 85 0 0.0 1.0 0.00 0.00 0.00 75 1014.1
20260904000250 85 0 0.0 1.0 0.00 0.00 0.00 75 1014.1
20260903235907 86 0 0.0 1.0 0.00 0.00 0.00 74 1014.1
20260903235748 86 0 0.0 1.0 0.00 0.00 0.00 74 1014.1
20260903235144 86 263 0.0 2.0 0.00 0.00 0.00 72 1014.0
20260903234644 87 0 0.0 2.0 0.00 0.00 0.00 71 1014.0
20260903234140 87 0 0.0 2.0 0.00 0.00 0.00 71 1013.9
20260903233640 87 230 0.0 3.0 0.00 0.00 0.00 70 1013.9
20260903233137 88 171 1.0 3.0 0.00 0.00 0.00 70 1013.9
20260903232635 88 217 0.0 2.0 0.00 0.00 0.00 68 1013.9
20260903232135 89 204 1.0 3.0 0.00 0.00 0.00 68 1013.9
20260903231632 89 179 1.0 4.0 0.00 0.00 0.00 67 1013.9
20260903231354 89 185 1.0 4.0 0.00 0.00 0.00 67 1013.9
20260903231237 89 185 1.0 4.0 0.00 0.00 0.00 67 1013.9
20260903230856 89 180 1.0 3.0 0.00 0.00 0.00 67 1013.9
20260903230734 89 180 1.0 3.0 0.00 0.00 0.00 67 1013.9
20260903230402 89 207 1.0 4.0 0.00 0.00 0.00 67 1014.0
20260903230246 89 207 1.0 4.0 0.00 0.00 0.00 67 1014.0
20260903225626 89 163 1.0 4.0 0.00 0.00 0.00 67 1014.0
20260903225125 90 260 1.0 3.0 0.00 0.00 0.00 68 1014.0
20260903224624 90 249 1.0 3.0 0.00 0.00 0.00 68 1014.0
20260903224605 91 205 1.0 3.0 0.00 0.00 0.00 66 1013.9
20260903224227 91 205 1.0 3.0 0.00 0.00 0.00 66 1013.9
20260903223623 91 207 1.0 3.0 0.00 0.00 0.00 66 1013.9
20260903223124 91 273 1.0 4.0 0.00 0.00 0.00 65 1013.9
20260903222625 91 140 2.0 4.0 0.00 0.00 0.00 65 1013.9
20260903222124 92 160 2.0 5.0 0.00 0.00 0.00 64 1013.9
20260903221624 92 175 2.0 6.0 0.00 0.00 0.00 63 1013.9
20260903221607 92 199 2.0 6.0 0.00 0.00 0.00 62 1013.9
20260903221225 92 199 2.0 6.0 0.00 0.00 0.00 62 1013.9
20260903220620 93 186 2.0 6.0 0.00 0.00 0.00 62 1014.0
20260903220118 93 157 2.0 6.0 0.00 0.00 0.00 61 1014.0
20260903215620 94 196 2.0 6.0 0.00 0.00 0.00 60 1014.0
20260903215601 94 186 2.0 8.0 0.00 0.00 0.00 60 1014.0
20260903215220 94 186 2.0 8.0 0.00 0.00 0.00 60 1014.0
20260903214613 94 167 2.0 8.0 0.00 0.00 0.00 59 1014.0
20260903214112 95 205 2.0 8.0 0.00 0.00 0.00 59 1014.1
20260903213840 95 203 2.0 5.0 0.00 0.00 0.00 57 1014.0
20260903213714 95 203 2.0 5.0 0.00 0.00 0.00 57 1014.0
20260903213109 95 140 2.0 4.0 0.00 0.00 0.00 58 1014.1
20260903212608 95 0 2.0 5.0 0.00 0.00 0.00 58 1014.1
20260903212107 96 213 2.0 5.0 0.00 0.00 0.00 58 1014.0
20260903211827 96 209 2.0 5.0 0.00 0.00 0.00 58 1014.1
20260903211713 96 209 2.0 5.0 0.00 0.00 0.00 58 1014.1
20260903211106 96 180 2.0 4.0 0.00 0.00 0.00 56 1014.1
20260903210828 96 195 2.0 5.0 0.00 0.00 0.00 58 1014.0
20260903210713 96 195 2.0 5.0 0.00 0.00 0.00 58 1014.0
20260903210106 96 213 3.0 6.0 0.00 0.00 0.00 56 1013.9
20260903205614 96 160 2.0 6.0 0.00 0.00 0.00 57 1013.9
20260903205100 97 228 2.0 6.0 0.00 0.00 0.00 56 1013.9
20260903204600 97 0 2.0 6.0 0.00 0.00 0.00 57 1013.9
20260903204057 97 231 2.0 4.0 0.00 0.00 0.00 55 1014.0
20260903203804 97 215 2.0 4.0 0.00 0.00 0.00 54 1014.1
20260903203655 97 188 2.0 4.0 0.00 0.00 0.00 54 1014.0
20260903203205 97 215 2.0 4.0 0.00 0.00 0.00 54 1014.1
20260903202556 98 192 2.0 5.0 0.00 0.00 0.00 52 1014.1
20260903202055 98 185 2.0 5.0 0.00 0.00 0.00 54 1014.2
20260903201552 98 233 2.0 4.0 0.00 0.00 0.00 52 1014.2
20260903201054 98 177 2.0 6.0 0.00 0.00 0.00 53 1014.2
20260903200550 98 164 2.0 6.0 0.00 0.00 0.00 57 1014.3
20260903200104 98 224 2.0 6.0 0.00 0.00 0.00 52 1014.3
20260903195601 98 206 2.0 6.0 0.00 0.00 0.00 54 1014.4
20260903195306 98 205 2.0 6.0 0.00 0.00 0.00 51 1014.4
20260903195150 98 205 2.0 6.0 0.00 0.00 0.00 51 1014.4
20260903194544 99 172 1.0 4.0 0.00 0.00 0.00 54 1014.5
20260903194044 99 283 1.0 4.0 0.00 0.00 0.00 55 1014.6
20260903193541 99 205 1.0 3.0 0.00 0.00 0.00 52 1014.7
20260903193043 98 0 1.0 4.0 0.00 0.00 0.00 55 1014.7
20260903192804 98 220 2.0 5.0 0.00 0.00 0.00 52 1014.7
20260903192644 98 220 2.0 5.0 0.00 0.00 0.00 52 1014.7
20260903192521 99 179 2.0 5.0 0.00 0.00 0.00 52 1014.8
20260903192142 99 179 2.0 5.0 0.00 0.00 0.00 52 1014.8
20260903191535 100 135 1.0 4.0 0.00 0.00 0.00 51 1014.8
20260903191035 99 257 1.0 3.0 0.00 0.00 0.00 53 1014.8
20260903190534 100 358 1.0 3.0 0.00 0.00 0.00 52 1014.8
20260903190032 99 308 1.0 2.0 0.00 0.00 0.00 53 1015.0
20260903185529 99 270 1.0 3.0 0.00 0.00 0.00 58 1015.0
20260903185028 98 172 1.0 3.0 0.00 0.00 0.00 55 1015.1
20260903184527 97 0 1.0 3.0 0.00 0.00 0.00 54 1015.2
20260903184025 97 0 1.0 4.0 0.00 0.00 0.00 55 1015.2
20260903184001 97 181 2.0 7.0 0.00 0.00 0.00 53 1015.3
20260903183630 97 181 2.0 7.0 0.00 0.00 0.00 53 1015.3
20260903183025 97 205 2.0 7.0 0.00 0.00 0.00 57 1015.3
20260903182523 98 222 1.0 6.0 0.00 0.00 0.00 52 1015.3
20260903182020 97 245 1.0 6.0 0.00 0.00 0.00 53 1015.4
20260903181520 97 205 2.0 7.0 0.00 0.00 0.00 55 1015.4
20260903181020 97 76 2.0 7.0 0.00 0.00 0.00 53 1015.4
20260903180518 97 171 1.0 7.0 0.00 0.00 0.00 54 1015.4
20260903180017 97 169 2.0 5.0 0.00 0.00 0.00 54 1015.4
20260903175516 97 96 2.0 5.0 0.00 0.00 0.00 56 1015.4
20260903175235 97 148 2.0 5.0 0.00 0.00 0.00 52 1015.5
20260903175118 97 148 2.0 5.0 0.00 0.00 0.00 52 1015.5